星链-30573 (STARLINK-30573 )

导读

STARLINK-30573是美国SpaceX公司星链(Starlink)星座的第二代卫星,于2023年10月13日发射升空。作为低轨宽带通信卫星,它隶属于星链Gen2星座,运行在300多公里至600公里左右的近地轨道。卫星采用平板设计,搭载Ku/Ka相控阵天线与激光星间链路,配备氪工质霍尔推进器,具备自主避撞能力,旨在为全球提供高速低时延卫星互联网服务,支撑星链全球组网与直连手机等业务拓展,设计寿命约5-7年,退役后会主动离轨坠入大气层焚毁。

Basic Information
目录编号:
58058
目录名称:
STARLINK-30573
国际标识:
2023-158H
轨道中心:
EARTH
卫星名称:
星链-30573
卫星全名:
星链-30573 (STARLINK-30573 )
卫星状态:
在轨 (已飞行1064 天)
发射日期:
2023-10-13 UTC
国别 :
美国 (US)
星等 :
--
This satellite is enrolled in the Space Conjunction Data Service (SCDS) and the current flight risk assessment level is: High Risk
Orbit Information
数据来源 国际轨道数据 AOE轨道数据
星历时间 2026-09-10T07:11:44+0800
1天前
查看轨道信息
2026-09-07T01:00:00+0800
5天前
查看轨道信息
半长轴 6861.217km 6861.181km
偏心率 0.0001379 0.0001567
轨道倾角 43.001° 43.002°
近地点辐角 264.392° 260.912°
升交点赤经 66.272° 84.671°
平近点角 95.678° 160.733°
近地点 482.133km 481.968km
远地点 484.027km 484.12km
周期 94.267分钟 94.267分钟
每日圈数 15.275698 15.275818
Detailed Information
固有亮度:
5
最大亮度:
0.3
卫星平台:
Starlink v2.0 mini
覆盖范围:
全球
运营商:
太空探索技术公司
运营商所在国:
美国
制造商(研发单位):
太空探索技术公司
制造商所在国:
美国
使用方式:
暂无
Satellite Introduction
星链(Starlink)计划是由太空探索技术公司(SpaceX)提出的一个巨型低轨卫星互联网星座项目,计划在2019年至2024年间在太空搭建由约1.2万颗卫星组成的“星链”网络,其中1584颗将部署在地球上空550千米处的近地轨道,并从2020年开始工作。该卫星仍在工作。
2D Orbit Map
3D Orbit Map
Orbit Altitude Analysis Chart
Orbit Inclination Analysis Chart
Orbit Comprehensive Analysis Chart
View Comprehensive Chart
Conjunction Data List
Event ID Objects TCA Miss Dist (km) Collision Risk Probability Collision Risk Index (CRI) Action
CDM_260911-222305-805806-791421
2026-09-11T
22:23:02+0000
0.391 km
远距离
2.727947E-4 高风险 0.84
CDM_260913-095105-805806-751721
2026-09-13T
09:51:05+0000
1.110 km
极远距离
1.021429E-5 中风险 0.55
CDM_260912-114305-805806-791421
2026-09-12T
11:43:20+0000
1.275 km
极远距离
8.751136E-6 低风险 0.54
CDM_260913-011305-805806-751721
2026-09-13T
01:13:14+0000
1.190 km
极远距离
8.033839E-6 低风险 0.53
CDM_260912-233905-805806-751721
2026-09-12T
23:39:05+0000
1.415 km
极远距离
4.492356E-6 低风险 0.48
CDM_260911-204805-805806-791421
2026-09-11T
20:48:53+0000
2.395 km
极远距离
1.490576E-6 低风险 0.38
CDM_260913-081605-805806-751721
2026-09-13T
08:16:55+0000
2.199 km
极远距离
1.339437E-6 低风险 0.38
CDM_260911-235705-805806-791421
2026-09-11T
23:57:11+0000
2.728 km
极远距离
1.200831E-6 低风险 0.37
CDM_260912-131705-805806-791421
2026-09-12T
13:17:29+0000
2.857 km
极远距离
1.12697E-6 低风险 0.36
Miss Distance Evolution Trend with All Objects
Collision Probability Evolution Trend with All Objects